Location: Wanzleben
(52.0609°N, 11.4408°E)
Time: 01:34:09
(UTC+00:00)

ATLAS CENTAUR R/B - Pass Details

Date: 18 September 2020
Orbit: 479 x 667 km, 64.7° (Epoch: 12 October)

Event Time Altitude Azimuth Distance (km) Brightness Sun altitude
Rises 19:28:40 0° 286° (WNW) 2,619 6.2 -19.5°
Reaches altitude 10° 19:31:45 10° 313° (NW) 1,704 5.0 -19.9°
Maximum altitude 19:33:50 14° 346° (NNW) 1,451 4.0 -20.2°
Drops below altitude 10° 19:35:53 10° 20° (NNE) 1,677 3.9 -20.5°
Enters shadow 19:37:33 - 37° (NE) 2,117 4.3 -20.7°
